[[{"header":{"parameterUnit":"m.s-1","parameterCategory":2,"la1":30.2991,"la2":30.254,"lo1":-89.0895,"lo2":-89.0444,"dy":0.0017,"dx":0.0017,"nx":28,"ny":28,"refTime":"2024-12-04T03:00:00:Z","depth":"0","parameterNumber":2,"parameterNumberName":"U-component_of_CURRENTS"},"data":[0,0,0,0,0,0,0,0,0,0,0,0,0,0,0,0,0,0,0,0,0,0,0,0,0,0,0,0,0,0,0,0,0,0,0,0,0,0,0,0,0,0,0,0,0,0,0,0,0,0,0,0,0,0,0,0,0,0,0.2792,0.2792,0,0.2806,0.2806,0.2806,0.2784,0.2783,0.2782,0.2782,0.2777,0.2777,0.2778,0,0,0,0,0,0,0,0,0,0,0,0,0,0.2761,0.2761,0.2792,0.2792,0.2792,0.2806,0.2806,0.2806,0.2784,0.2783,0.2782,0.2782,0.2777,0.2777,0.2778,0,0,0,0,0,0,0,0,0,0,0,0,0,0.2772,0.2761,0.2792,0.2785,0.2784,0.2806,0.2806,0.2806,0.2784,0.2783,0.2782,0.2781,0.2777,0.2777,0.2778,0.2799,0,0,0.278,0.278,0,0,0,0,0,0,0,0,0.2772,0.2773,0.2785,0.2785,0.2785,0.2794,0.2793,0.2803,0.2784,0.2782,0.2782,0.2781,0.2783,0.2783,0.2785,0.2799,0.2799,0.278,0.278,0.2781,0.2781,0,0,0,0,0,0,0,0.2771,0.2773,0.2795,0.2786,0.2786,0.2786,0.2786,0.2795,0.2785,0.2782,0.2781,0.2786,0.2782,0.2784,0.2785,0.2799,0.278,0.278,0.2781,0.2781,0.2864,0.2866,0,0,0,0,0,0,0.2774,0.2772,0.2795,0.2796,0.2778,0.2787,0.2787,0.279,0.2785,0.2785,0.2787,0.2785,0.2784,0.2784,0.2784,0.2837,0.2781,0.2781,0.2781,0.2862,0.2864,0.2866,0,0,0,0,0,0,0.2773,0.2775,0.2794,0.2786,0.2788,0.2789,0.2792,0.2791,0.2797,0.279,0.2788,0.2794,0.2783,0.2783,0.2803,0.2835,0.2781,0.2782,0.286,0.2863,0.2865,0.2924,0,0,0,0,0,0,0.2772,0.2775,0.2779,0.2786,0.2789,0.2815,0.2793,0.2792,0.2802,0.28,0.2795,0.2794,0.2782,0.2802,0.2803,0.2835,0.2782,0.2858,0.2861,0.2864,0.292,0.2929,0.2936,0,0,0,0,0,0.2771,0.2781,0.2779,0.2782,0.2794,0.2816,0.2818,0.2814,0.2803,0.2814,0.2812,0.2794,0.2825,0.2804,0.2805,0.2838,0.2856,0.286,0.2864,0.2916,0.2927,0.2936,0,0,0,0,0,0,0.2767,0.2781,0.2778,0.2791,0.2806,0.2813,0.2824,0.2822,0.2829,0.2826,0.2813,0.2812,0.2847,0.2836,0.2813,0.2874,0.284,0.2844,0.2879,0.2889,0.2897,0.29,0.2783,0,0,0,0,0,0.277,0.2782,0.2796,0.2807,0.2817,0.2822,0.283,0.2831,0.2839,0.284,0.2838,0.2844,0.2866,0.287,0.2884,0.2911,0.2915,0.2936,0.2944,0.2951,0.2956,0.3007,0.302,0.288,0.288,0.288,0,0,0.2771,0.2782,0.2787,0.2808,0.2817,0.2839,0.2825,0.2845,0.2864,0.284,0.2864,0.2874,0.2882,0.2917,0.2931,0.2909,0.2991,0.2956,0.2961,0.2963,0.3013,0.3026,0.3038,0.2883,0.2882,0.2882,0,0,0.2783,0.2791,0.2805,0.2824,0.2848,0.2857,0.2866,0.2882,0.2889,0.2915,0.2914,0.2944,0.2958,0.2979,0.299,0.3052,0.3037,0.3057,0.3093,0.3143,0.3155,0.3166,0.3178,0.3189,0.3054,0.3055,0.3055,0,0.2783,0.2798,0.2814,0.2838,0.2855,0.2868,0.289,0.2909,0.2928,0.2949,0.2929,0.2993,0.2991,0.3056,0.3072,0.3071,0.3082,0.3053,0.3154,0.3164,0.3174,0.3184,0.3195,0.3058,0.3057,0.3057,0.3057,0,0.2804,0.2821,0.2835,0.2867,0.2893,0.2915,0.2946,0.2975,0.2983,0.3002,0.3064,0.3075,0.3112,0.3124,0.3109,0.3188,0.3168,0.3162,0.3126,0.3191,0.3198,0.3209,0.3063,0.3061,0.306,0.306,0,0,0.2787,0.2837,0.2841,0.2856,0.2907,0.2927,0.2981,0.303,0.3071,0.3098,0.3152,0.3194,0.3206,0.322,0.3226,0.3261,0.3327,0.3236,0.3237,0.3242,0.3416,0.3328,0.3331,0.3341,0.3344,0.3346,0.3388,0,0.2792,0.283,0.2861,0.29,0.292,0.2966,0.3015,0.3069,0.3113,0.3172,0.3212,0.3262,0.3243,0.3265,0.3305,0.333,0.336,0.3314,0.3357,0.3357,0.3268,0.3343,0.3236,0.3259,0.3399,0.3401,0.3402,0,0.2795,0.282,0.2854,0.2912,0.2927,0.2961,0.3047,0.3095,0.3195,0.3233,0.3306,0.3333,0.3404,0.3368,0.3452,0.3424,0.3423,0.3431,0.3433,0.3338,0.329,0.322,0.3274,0.3235,0.3418,0.3417,0.3416,0,0.2758,0.2813,0.2834,0.2854,0.2928,0.2961,0.3009,0.3111,0.3172,0.3278,0.3331,0.3417,0.3462,0.3499,0.3513,0.3489,0.3589,0.3559,0.348,0.3473,0.3383,0.3362,0.3399,0.3616,0.3616,0.3616,0.3616,0,0.2743,0.2759,0.2816,0.2828,0.2872,0.2937,0.3009,0.308,0.32,0.3269,0.3355,0.3425,0.3499,0.3558,0.3553,0.3554,0.3627,0.3501,0.3491,0.3397,0.3379,0.3339,0.3331,0.3617,0.3617,0.3617,0.3616,0,0.2698,0.2731,0.2759,0.2829,0.2852,0.2886,0.3002,0.3059,0.3179,0.3277,0.3312,0.3456,0.3518,0.3573,0.3635,0.3598,0.3519,0.3585,0.3448,0.3421,0.3268,0.3266,0.3146,0.3044,0.3496,0.3494,0.3492,0,0.2677,0.2685,0.2747,0.2761,0.2789,0.2853,0.2898,0.303,0.3099,0.3279,0.3316,0.3433,0.3487,0.3562,0.3536,0.3527,0.3455,0.3401,0.3331,0.3258,0.3251,0.3128,0.3042,0.3236,0.3233,0.323,0.3227,0,0.2638,0.2658,0.2679,0.2711,0.2745,0.2794,0.2869,0.2925,0.307,0.3151,0.3262,0.3328,0.3418,0.3378,0.3381,0.3359,0.3257,0.3338,0.3323,0.3102,0.2913,0.281,0.319,0.3202,0.3205,0.3207,0.3208,0.3209,0.2603,0.2604,0.2627,0.2646,0.2678,0.2705,0.2709,0.2797,0.2872,0.2957,0.3109,0.3153,0.3232,0.3223,0.3186,0.3086,0.3056,0.2997,0.3016,0.2908,0.2759,0.3057,0.3018,0.3019,0.3021,0.3022,0.3023,0,0.2542,0.2543,0.256,0.2561,0.2544,0.2603,0.2654,0.2636,0.2644,0.278,0.2843,0.2913,0.2905,0.2954,0.2922,0.2815,0.2675,0.2747,0.2593,0.2534,0.2873,0.2813,0.2654,0.2654,0.2654,0.2654,0.2654,0.2654,0.251,0.2482,0.248,0.2413,0.241,0.2353,0.235,0.2344,0.241,0.2437,0.248,0.2571,0.2798,0.2887,0.2804,0.2709,0.2518,0.2385,0.2375,0.2692,0.2717,0.2742,0.2685,0.2501,0.2501,0.1917,0.1913,0.191]},{"header":{"parameterUnit":"m.s-1","parameterCategory":2,"la1":30.2991,"la2":30.254,"lo1":-89.0895,"lo2":-89.0444,"dy":0.0017,"dx":0.0017,"nx":28,"ny":28,"refTime":"2024-12-04T03:00:00:Z","depth":"0","parameterNumber":3,"parameterNumberName":"V-component_of_CURRENTS"},"data":[0,0,0,0,0,0,0,0,0,0,0,0,0,0,0,0,0,0,0,0,0,0,0,0,0,0,0,0,0,0,0,0,0,0,0,0,0,0,0,0,0,0,0,0,0,0,0,0,0,0,0,0,0,0,0,0,0,0,-0.0045,-0.0045,0,-0.0094,-0.0095,-0.0096,-0.0128,-0.0128,-0.0128,-0.0128,-0.0195,-0.0197,-0.0199,0,0,0,0,0,0,0,0,0,0,0,0,0,-0.0037,-0.0037,-0.0045,-0.0045,-0.0046,-0.0094,-0.0095,-0.0096,-0.0128,-0.0128,-0.0128,-0.0128,-0.0195,-0.0197,-0.0199,0,0,0,0,0,0,0,0,0,0,0,0,0,-0.0061,-0.0037,-0.0045,-0.0066,-0.0069,-0.0094,-0.0095,-0.0096,-0.0128,-0.0128,-0.0128,-0.0128,-0.0194,-0.0197,-0.0199,-0.0214,0,0,-0.0207,-0.0208,0,0,0,0,0,0,0,0,-0.0059,-0.0061,-0.0063,-0.0065,-0.0068,-0.0104,-0.0117,-0.0136,-0.0128,-0.0107,-0.0128,-0.0128,-0.0165,-0.017,-0.0182,-0.0217,-0.022,-0.0207,-0.0209,-0.021,-0.0211,0,0,0,0,0,0,0,-0.0057,-0.0059,-0.0066,-0.0063,-0.0066,-0.0094,-0.0097,-0.0121,-0.0137,-0.0109,-0.0111,-0.0114,-0.0167,-0.0179,-0.0183,-0.0221,-0.0207,-0.021,-0.0211,-0.0212,-0.0265,-0.0265,0,0,0,0,0,0,-0.0044,-0.0057,-0.0065,-0.0068,-0.0061,-0.0093,-0.0097,-0.0093,-0.0136,-0.0142,-0.0114,-0.0115,-0.0174,-0.018,-0.0186,-0.0187,-0.021,-0.0213,-0.0214,-0.0265,-0.0265,-0.0265,0,0,0,0,0,0,-0.0044,-0.0044,-0.0063,-0.0063,-0.0067,-0.0093,-0.0089,-0.0094,-0.0102,-0.0139,-0.0146,-0.0115,-0.0175,-0.0182,-0.0198,-0.0191,-0.0214,-0.0216,-0.0265,-0.0265,-0.0265,-0.0202,0,0,0,0,0,0,-0.0043,-0.0044,-0.0039,-0.0062,-0.0066,-0.0066,-0.0089,-0.0095,-0.0103,-0.0105,-0.0143,-0.015,-0.0175,-0.0194,-0.0201,-0.0195,-0.0218,-0.0266,-0.0265,-0.0265,-0.0204,-0.02,-0.0196,0,0,0,0,0,-0.0043,-0.0029,-0.0039,-0.004,-0.0058,-0.0065,-0.007,-0.0091,-0.0103,-0.01,-0.0126,-0.0148,-0.0197,-0.0196,-0.0204,-0.0198,-0.0266,-0.0265,-0.0265,-0.0206,-0.0201,-0.0196,0,0,0,0,0,0,-0.0023,-0.0032,-0.0043,-0.0032,-0.0044,-0.007,-0.007,-0.0086,-0.0105,-0.0108,-0.0145,-0.0153,-0.0165,-0.0191,-0.0189,-0.0214,-0.0236,-0.0237,-0.0189,-0.0184,-0.0179,-0.0158,-0.022,0,0,0,0,0,-0.0017,-0.0009,-0.0025,-0.0018,-0.0021,-0.0046,-0.0053,-0.0065,-0.0084,-0.0093,-0.0119,-0.0148,-0.0172,-0.0183,-0.0208,-0.022,-0.0243,-0.0223,-0.0219,-0.0215,-0.0203,-0.0233,-0.023,-0.0263,-0.0263,-0.0263,0,0,-0.0008,-0.0012,-0.0009,-0.0013,-0.0027,-0.0019,-0.005,-0.0053,-0.0048,-0.0098,-0.01,-0.0134,-0.0172,-0.0184,-0.0192,-0.0202,-0.0217,-0.0214,-0.021,-0.0201,-0.0232,-0.0229,-0.0226,-0.0263,-0.0263,-0.0263,0,0,0.0018,0.0011,0.0027,0.0023,0.0014,0.0001,0.0005,-0.0016,-0.0026,-0.0036,-0.007,-0.0093,-0.013,-0.0152,-0.017,-0.0157,-0.0194,-0.017,-0.013,-0.0158,-0.0155,-0.0153,-0.0175,-0.0175,-0.0167,-0.0167,-0.0167,0,0.0028,0.0049,0.003,0.0045,0.0048,0.0017,0.0036,0.0023,-0.0001,-0.0004,-0.0026,-0.0078,-0.0113,-0.0125,-0.0123,-0.0146,-0.0167,-0.0144,-0.0151,-0.015,-0.0148,-0.0171,-0.0173,-0.0164,-0.0164,-0.0165,-0.0165,0,0.007,0.0084,0.0094,0.0106,0.0104,0.0117,0.01,0.0095,0.0075,0.006,0.004,-0.0011,-0.0039,-0.006,-0.0089,-0.0097,-0.0116,-0.0142,-0.016,-0.0141,-0.0167,-0.0169,-0.016,-0.0161,-0.0162,-0.0163,0,0,0.0103,0.0122,0.0126,0.0145,0.014,0.0149,0.0154,0.0156,0.0173,0.0129,0.0137,0.0083,0.0052,0.003,-0.0015,-0.0045,-0.0061,-0.0085,-0.0088,-0.0098,-0.0119,-0.0127,-0.0131,-0.0089,-0.009,-0.009,-0.0139,0,0.0143,0.0192,0.0184,0.0229,0.0254,0.0229,0.0242,0.0235,0.0221,0.0221,0.0159,0.0148,0.0088,0.0074,0.0036,-0.0034,-0.0064,-0.0045,-0.0143,-0.0146,-0.0149,-0.0133,-0.0118,-0.016,-0.0142,-0.0142,-0.0142,0,0.019,0.0218,0.0268,0.0302,0.031,0.0326,0.0347,0.0358,0.0342,0.0328,0.0298,0.0249,0.0202,0.0143,0.0041,0.0056,-0.0021,-0.0083,-0.0087,-0.0115,-0.0158,-0.0178,-0.0165,-0.0322,-0.0146,-0.0146,-0.0146,0,0.0234,0.0279,0.0325,0.0336,0.0363,0.0376,0.0392,0.0391,0.0421,0.0401,0.0412,0.0339,0.0314,0.0204,0.0074,0.0058,-0.0042,-0.0082,-0.0162,-0.0164,-0.0179,-0.0182,-0.0321,-0.0153,-0.0153,-0.0153,-0.0153,0,0.0286,0.0324,0.0352,0.0378,0.0441,0.0433,0.0495,0.0497,0.0515,0.0566,0.0477,0.0496,0.0328,0.0246,0.011,-0.0023,-0.0015,-0.0145,-0.0174,-0.0158,-0.0157,-0.0319,-0.0422,-0.0155,-0.0154,-0.0154,-0.0154,0,0.033,0.0345,0.0406,0.0446,0.0465,0.0511,0.0577,0.0627,0.0625,0.0685,0.0682,0.0623,0.0522,0.0345,0.0175,0.0045,-0.0191,-0.0151,-0.0116,-0.014,-0.0361,-0.046,-0.0634,-0.0702,-0.0243,-0.0244,-0.0244,0,0.0357,0.0392,0.0463,0.051,0.0532,0.0601,0.0655,0.0683,0.075,0.0775,0.0819,0.0734,0.0709,0.0454,0.0202,-0.0034,-0.02,-0.0182,-0.0215,-0.0363,-0.0496,-0.0569,-0.0619,-0.0214,-0.0214,-0.0214,-0.0214,0,0.0413,0.0434,0.0487,0.0588,0.0654,0.0742,0.0825,0.0897,0.0939,0.0993,0.1056,0.1032,0.0784,0.0567,0.0227,0.0051,-0.0299,-0.019,-0.0358,-0.0492,-0.0566,-0.0648,-0.0193,-0.0215,-0.0215,-0.0215,-0.0215,-0.0215,0.0456,0.0505,0.0576,0.0676,0.076,0.0875,0.0966,0.1066,0.1188,0.1286,0.1247,0.1253,0.0896,0.0449,0.0182,-0.0293,-0.0314,-0.0435,-0.0544,-0.0603,-0.0672,-0.0211,-0.0259,-0.0259,-0.0259,-0.0259,-0.0259,0,0.0514,0.0569,0.0662,0.0779,0.0885,0.0919,0.1076,0.118,0.1342,0.1431,0.1487,0.1312,0.0885,0.0422,-0.0218,-0.057,-0.0704,-0.0778,-0.0888,-0.0922,-0.0519,-0.0519,-0.0608,-0.0608,-0.0608,-0.0608,-0.0607,-0.0607,0.0542,0.0637,0.0684,0.0864,0.0952,0.1106,0.1205,0.1362,0.1474,0.1599,0.1606,0.1563,0.1194,0.0042,-0.0734,-0.0917,-0.1191,-0.1261,-0.139,-0.1131,-0.1108,-0.1085,-0.1109,-0.132,-0.1321,-0.1727,-0.1731,-0.1735]}],[{"header":{"parameterUnit":"m.s-1","parameterCategory":2,"la1":30.2991,"la2":30.254,"lo1":-89.0895,"lo2":-89.0444,"dy":0.0017,"dx":0.0017,"nx":28,"ny":28,"refTime":"2024-12-04T03:00:00:Z","depth":"2","parameterNumber":2,"parameterNumberName":"U-component_of_CURRENTS"},"data":[0,0,0,0,0,0,0,0,0,0,0,0,0,0,0,0,0,0,0,0,0,0,0,0,0,0,0,0,0,0,0,0,0,0,0,0,0,0,0,0,0,0,0,0,0,0,0,0,0,0,0,0,0,0,0,0,0,0,0.2585,0.2586,0,0.2598,0.2598,0.2598,0.2592,0.2592,0.2592,0.2592,0.2591,0.2592,0.2592,0,0,0,0,0,0,0,0,0,0,0,0,0,0.2563,0.2563,0.2585,0.2586,0.2586,0.2598,0.2598,0.2598,0.2592,0.2592,0.2592,0.2591,0.2591,0.2592,0.2592,0,0,0,0,0,0,0,0,0,0,0,0,0,0.2572,0.2563,0.2585,0.2586,0.2586,0.2598,0.2598,0.2598,0.2592,0.2592,0.2592,0.2591,0.2591,0.2592,0.2592,0.2598,0,0,0.2592,0.2593,0,0,0,0,0,0,0,0,0.2571,0.2572,0.2585,0.2586,0.2586,0.2595,0.2591,0.2598,0.2592,0.2588,0.2592,0.2591,0.2593,0.2593,0.2593,0.2598,0.2598,0.2592,0.2593,0.2593,0.2593,0,0,0,0,0,0,0,0.2571,0.2572,0.2588,0.2586,0.2586,0.2588,0.2589,0.2592,0.259,0.2588,0.2588,0.2593,0.2593,0.2593,0.2593,0.2598,0.2592,0.2593,0.2593,0.2593,0.2667,0.2668,0,0,0,0,0,0,0.2573,0.2571,0.2588,0.2589,0.258,0.2589,0.259,0.2591,0.259,0.259,0.2593,0.2593,0.2593,0.2593,0.2593,0.2647,0.2593,0.2593,0.2593,0.2665,0.2667,0.2669,0,0,0,0,0,0,0.2572,0.2574,0.2588,0.2582,0.2584,0.259,0.2591,0.2591,0.2604,0.2594,0.2594,0.2607,0.2593,0.2593,0.2613,0.2645,0.2593,0.2593,0.2663,0.2666,0.2668,0.2725,0,0,0,0,0,0,0.2571,0.2574,0.258,0.2582,0.2585,0.2607,0.2591,0.2592,0.2607,0.2607,0.2606,0.2605,0.2593,0.2613,0.2614,0.2644,0.2593,0.266,0.2664,0.2667,0.272,0.2729,0.2736,0,0,0,0,0,0.2571,0.2579,0.258,0.2583,0.2592,0.2608,0.2609,0.2611,0.2608,0.262,0.2622,0.2605,0.2636,0.2615,0.2615,0.2646,0.2659,0.2663,0.2667,0.2717,0.2727,0.2736,0,0,0,0,0,0,0.2571,0.258,0.2581,0.2591,0.2605,0.2608,0.262,0.2621,0.2632,0.2635,0.2622,0.2622,0.2657,0.2645,0.2623,0.268,0.2647,0.2652,0.2685,0.2695,0.2703,0.2713,0.2594,0,0,0,0,0,0.2575,0.2585,0.2595,0.2605,0.2614,0.262,0.2629,0.2633,0.2641,0.2646,0.2646,0.2654,0.2673,0.2678,0.2689,0.2713,0.2715,0.2737,0.2745,0.2752,0.2762,0.2803,0.2816,0.2683,0.2683,0.2683,0,0,0.2577,0.2585,0.259,0.2607,0.2616,0.2635,0.2625,0.2646,0.2664,0.2644,0.2672,0.2683,0.2688,0.272,0.2735,0.2713,0.279,0.2757,0.2762,0.2769,0.2809,0.2822,0.2833,0.2685,0.2685,0.2684,0,0,0.2587,0.2597,0.2609,0.2626,0.2648,0.2656,0.2667,0.2682,0.2693,0.272,0.272,0.2752,0.2765,0.2781,0.2789,0.2849,0.2835,0.2855,0.2897,0.2937,0.2948,0.2958,0.297,0.2981,0.2854,0.2854,0.2854,0,0.2592,0.2603,0.2617,0.2637,0.2652,0.2668,0.2688,0.2706,0.2727,0.2748,0.2737,0.2798,0.2796,0.2851,0.2872,0.2867,0.2879,0.2856,0.2947,0.2956,0.2966,0.2976,0.2987,0.2857,0.2857,0.2856,0.2856,0,0.2607,0.2624,0.2636,0.2664,0.2688,0.2708,0.2736,0.2766,0.2782,0.2801,0.2863,0.2873,0.291,0.292,0.291,0.2983,0.2967,0.2955,0.2919,0.2982,0.2989,0.3,0.2862,0.286,0.2859,0.2859,0,0,0.2595,0.2636,0.2641,0.2656,0.2702,0.2718,0.277,0.2814,0.2855,0.2888,0.294,0.2983,0.3001,0.3013,0.3018,0.3051,0.3117,0.3033,0.3033,0.3039,0.3195,0.3115,0.3117,0.3124,0.3126,0.3128,0.317,0,0.26,0.263,0.2657,0.2693,0.271,0.2754,0.2798,0.2849,0.2895,0.2952,0.2992,0.3041,0.3032,0.3058,0.3096,0.3117,0.3148,0.3105,0.3138,0.3139,0.3056,0.3129,0.2867,0.2878,0.318,0.3182,0.3183,0,0.26,0.2621,0.2652,0.2702,0.2716,0.2749,0.283,0.2875,0.2969,0.3008,0.3081,0.3109,0.3178,0.3151,0.3231,0.3206,0.3211,0.3217,0.3219,0.3133,0.3079,0.2867,0.2885,0.32,0.3198,0.3197,0.3196,0,0.2568,0.2616,0.2636,0.2653,0.2718,0.2752,0.2799,0.2895,0.2952,0.3054,0.3106,0.3186,0.3233,0.3268,0.3287,0.3268,0.3359,0.3326,0.3258,0.3251,0.3028,0.2998,0.3383,0.3382,0.3382,0.3382,0.3382,0,0.2553,0.2569,0.2623,0.2634,0.2676,0.2736,0.2808,0.2873,0.2985,0.305,0.3134,0.3195,0.3269,0.3323,0.3322,0.3327,0.339,0.3283,0.3269,0.3039,0.3011,0.3288,0.3277,0.3384,0.3383,0.3383,0.3383,0,0.2514,0.2545,0.2571,0.2636,0.2659,0.2695,0.2806,0.2859,0.2975,0.3066,0.31,0.323,0.3289,0.3341,0.3398,0.3367,0.3374,0.3354,0.307,0.3022,0.3226,0.3217,0.3282,0.328,0.3278,0.3277,0.3275,0,0.2494,0.2502,0.2562,0.2577,0.2606,0.2672,0.2715,0.2839,0.29,0.3067,0.3096,0.321,0.3254,0.3323,0.3283,0.3272,0.3341,0.3019,0.2934,0.3242,0.3222,0.3216,0.321,0.2655,0.2649,0.2644,0.264,0,0.2456,0.2479,0.2498,0.2532,0.2568,0.2612,0.2684,0.2728,0.2863,0.2939,0.3029,0.3087,0.3161,0.3036,0.3042,0.2998,0.2999,0.2914,0.3324,0.2726,0.2656,0.2634,0.2648,0.2594,0.2598,0.2602,0.2604,0.2606,0.2425,0.2426,0.245,0.2472,0.2506,0.2521,0.2521,0.2593,0.2655,0.2711,0.2852,0.2833,0.2858,0.2726,0.2638,0.2562,0.277,0.2626,0.264,0.2659,0.2585,0.2515,0.2412,0.2415,0.2418,0.2421,0.2423,0,0.2368,0.2371,0.2387,0.2389,0.2371,0.2434,0.2466,0.2424,0.2417,0.2495,0.2537,0.2318,0.2245,0.2264,0.2082,0.2084,0.205,0.199,0.1911,0.1959,0.2002,0.189,0.1535,0.1532,0.1529,0.1527,0,0,0.2337,0.2309,0.2305,0.2241,0.2246,0.2185,0.2173,0.2121,0.2129,0.2057,0.2016,0.2162,0.2219,0.1849,0.18,0.1635,0.1787,0.1572,0.2289,0.2248,0.2286,0.2378,0.2264,0,0,0,0,0]},{"header":{"parameterUnit":"m.s-1","parameterCategory":2,"la1":30.2991,"la2":30.254,"lo1":-89.0895,"lo2":-89.0444,"dy":0.0017,"dx":0.0017,"nx":28,"ny":28,"refTime":"2024-12-04T03:00:00:Z","depth":"2","parameterNumber":3,"parameterNumberName":"V-component_of_CURRENTS"},"data":[0,0,0,0,0,0,0,0,0,0,0,0,0,0,0,0,0,0,0,0,0,0,0,0,0,0,0,0,0,0,0,0,0,0,0,0,0,0,0,0,0,0,0,0,0,0,0,0,0,0,0,0,0,0,0,0,0,0,0.0089,0.0089,0,0.0046,0.0046,0.0045,0.001,0.001,0.001,0.0009,-0.0051,-0.0052,-0.0053,0,0,0,0,0,0,0,0,0,0,0,0,0,0.0089,0.0089,0.0089,0.0089,0.0088,0.0046,0.0046,0.0045,0.001,0.001,0.001,0.0009,-0.005,-0.0052,-0.0054,0,0,0,0,0,0,0,0,0,0,0,0,0,0.0071,0.0089,0.0089,0.0067,0.0065,0.0047,0.0046,0.0045,0.001,0.001,0.0009,0.0009,-0.005,-0.0052,-0.0054,-0.0059,0,0,-0.006,-0.0061,0,0,0,0,0,0,0,0,0.0072,0.0071,0.0071,0.0069,0.0066,0.0034,0.0024,0.0009,0.001,0.0029,0.0009,0.0009,-0.0023,-0.0027,-0.0036,-0.0062,-0.0065,-0.006,-0.0062,-0.0062,-0.0063,0,0,0,0,0,0,0,0.0073,0.0072,0.0071,0.007,0.0067,0.0041,0.0039,0.002,0.0004,0.0028,0.0025,0.0023,-0.0024,-0.0034,-0.0038,-0.0066,-0.006,-0.0062,-0.0063,-0.0064,-0.0105,-0.0105,0,0,0,0,0,0,0.0085,0.0074,0.0072,0.007,0.007,0.0042,0.0039,0.0044,0.0005,-0.0001,0.0023,0.0022,-0.003,-0.0035,-0.004,-0.0039,-0.0062,-0.0064,-0.0066,-0.0105,-0.0105,-0.0105,0,0,0,0,0,0,0.0085,0.0085,0.0074,0.0071,0.0068,0.0043,0.0048,0.0043,0.0033,0.0002,-0.0004,0.0019,-0.0031,-0.0037,-0.0051,-0.0042,-0.0065,-0.0067,-0.0105,-0.0105,-0.0105,-0.0043,0,0,0,0,0,0,0.0085,0.0086,0.009,0.0072,0.0069,0.0073,0.0049,0.0043,0.0033,0.003,-0.0004,-0.001,-0.0031,-0.0048,-0.0053,-0.0045,-0.0069,-0.0105,-0.0105,-0.0105,-0.0045,-0.0041,-0.0037,0,0,0,0,0,0.0085,0.0101,0.0091,0.009,0.0077,0.0073,0.0069,0.0048,0.0033,0.0036,0.0012,-0.0009,-0.005,-0.0049,-0.0055,-0.0048,-0.0106,-0.0105,-0.0105,-0.0047,-0.0042,-0.0037,0,0,0,0,0,0,0.0102,0.0098,0.0087,0.0099,0.0089,0.0068,0.0068,0.0052,0.0034,0.0028,-0.0004,-0.0011,-0.0022,-0.0044,-0.0042,-0.006,-0.0082,-0.0083,-0.0036,-0.0031,-0.0027,-0.0011,-0.007,0,0,0,0,0,0.0109,0.0118,0.0106,0.0114,0.0112,0.0088,0.0082,0.0069,0.0052,0.0043,0.0019,-0.0007,-0.0025,-0.0035,-0.0056,-0.0063,-0.0086,-0.0064,-0.006,-0.0056,-0.0048,-0.0074,-0.0071,-0.0103,-0.0103,-0.0103,0,0,0.0117,0.0115,0.012,0.0118,0.0106,0.0116,0.0084,0.0081,0.0087,0.004,0.0038,0.0007,-0.0025,-0.0032,-0.0039,-0.0049,-0.006,-0.0056,-0.0052,-0.0046,-0.0073,-0.007,-0.0067,-0.0103,-0.0103,-0.0103,0,0,0.0144,0.0137,0.0155,0.0153,0.0144,0.0134,0.0136,0.0117,0.0106,0.0099,0.0067,0.0045,0.0015,-0.0002,-0.0016,-0.0001,-0.0037,-0.0013,0.0024,-0.0001,0.0002,0.0004,-0.0021,-0.0022,-0.001,-0.001,-0.001,0,0.0152,0.0176,0.0158,0.0175,0.0179,0.0147,0.0168,0.0156,0.0134,0.0132,0.0107,0.0063,0.0032,0.0029,0.0029,0.001,-0.0013,0.001,0.0006,0.0007,0.0008,-0.0018,-0.0019,-0.0007,-0.0007,-0.0007,-0.0008,0,0.0196,0.0211,0.0222,0.0236,0.0236,0.0249,0.0234,0.023,0.0208,0.0194,0.0178,0.013,0.0107,0.0089,0.0061,0.0057,0.0035,0.0014,-0.0003,0.0016,-0.0014,-0.0016,-0.0002,-0.0003,-0.0004,-0.0005,0,0,0.0226,0.025,0.0253,0.0274,0.0271,0.0282,0.0289,0.0295,0.0312,0.0268,0.0278,0.0229,0.0195,0.0177,0.0136,0.0108,0.0089,0.0067,0.0064,0.005,0.0032,0.0018,0.0013,0.0066,0.0066,0.0066,0.0009,0,0.0266,0.0318,0.0314,0.036,0.0387,0.0364,0.0381,0.0377,0.0362,0.0363,0.0305,0.0295,0.0233,0.0219,0.0182,0.0116,0.0085,0.0106,0.0009,0.0006,-0.0002,0.0011,0.0033,-0.0016,0.0006,0.0006,0.0005,0,0.0313,0.0344,0.0396,0.0435,0.0444,0.0461,0.0485,0.05,0.0487,0.0474,0.0444,0.0395,0.0348,0.0288,0.0187,0.0203,0.0123,0.0064,0.006,0.0026,-0.0012,-0.0033,-0.0022,0.0,0.0001,0.0001,0.0002,0,0.0354,0.0403,0.045,0.0463,0.0496,0.0511,0.0528,0.0532,0.0564,0.0545,0.0554,0.0484,0.0457,0.0348,0.0214,0.02,0.0099,0.0066,-0.0021,-0.0023,-0.0034,-0.0036,-0.0007,-0.0007,-0.0006,-0.0006,-0.0006,0,0.0405,0.0444,0.0475,0.0502,0.0567,0.0565,0.0629,0.0633,0.0654,0.0705,0.0617,0.0633,0.0469,0.0385,0.0249,0.0112,0.0124,-0.0009,-0.0036,-0.0013,-0.0013,-0.0023,-0.0024,-0.0008,-0.0008,-0.0007,-0.0007,0,0.0446,0.0463,0.0526,0.057,0.0589,0.0637,0.0706,0.0759,0.0759,0.0818,0.0813,0.0751,0.0643,0.0469,0.0301,0.0175,0.0033,-0.0022,0.0015,-0.0006,-0.0083,-0.0081,-0.012,-0.0121,-0.0122,-0.0122,-0.0123,0,0.0473,0.0508,0.058,0.0627,0.0649,0.0719,0.0777,0.081,0.0878,0.09,0.0941,0.0848,0.0812,0.0556,0.0311,0.0077,0.0037,-0.006,-0.0085,-0.0071,-0.0094,-0.009,-0.0086,-0.0079,-0.0079,-0.0079,-0.0079,0,0.0527,0.0547,0.0601,0.0699,0.0766,0.0858,0.0941,0.1012,0.1058,0.1103,0.1151,0.1116,0.0868,0.0641,0.0308,0.0149,-0.0024,-0.007,-0.006,-0.005,-0.0036,-0.0057,-0.0054,-0.008,-0.008,-0.008,-0.008,-0.008,0.0567,0.0615,0.0685,0.0781,0.0866,0.0982,0.1072,0.1167,0.1279,0.135,0.1311,0.1256,0.0984,0.0566,0.028,-0.0031,-0.0014,-0.0126,-0.0124,-0.0122,-0.0104,-0.0091,-0.0142,-0.0143,-0.0143,-0.0143,-0.0143,0,0.0621,0.0674,0.0765,0.0879,0.0984,0.1019,0.1175,0.1268,0.1408,0.1445,0.1473,0.1211,0.0942,0.0613,0.0159,-0.01,-0.0122,-0.0188,-0.0159,-0.0156,-0.0153,-0.0136,-0.0184,-0.0185,-0.0186,-0.0187,0,0,0.0648,0.0738,0.0785,0.0957,0.1042,0.1193,0.1289,0.1419,0.1487,0.154,0.1496,0.1416,0.1024,0.069,0.0332,0.0067,0.0014,0.0016,0.0079,0.016,0.0165,-0.0085,-0.005,0,0,0,0,0]}],[{"header":{"parameterUnit":"m.s-1","parameterCategory":2,"la1":30.2991,"la2":30.254,"lo1":-89.0895,"lo2":-89.0444,"dy":0.0017,"dx":0.0017,"nx":28,"ny":28,"refTime":"2024-12-04T03:00:00:Z","depth":"4","parameterNumber":2,"parameterNumberName":"U-component_of_CURRENTS"},"data":[0,0,0,0,0,0,0,0,0,0,0,0,0,0,0,0,0,0,0,0,0,0,0,0,0,0,0,0,0,0,0,0,0,0,0,0,0,0,0,0,0,0,0,0,0,0,0,0,0,0,0,0,0,0,0,0,0,0,0.153,0.153,0,0.1563,0.1563,0.1563,0.1604,0.1605,0.1606,0.1607,0.1642,0.1643,0.1643,0,0,0,0,0,0,0,0,0,0,0,0,0,0.1489,0.1489,0.153,0.153,0.1531,0.1563,0.1563,0.1563,0.1604,0.1605,0.1606,0.1607,0.1642,0.1643,0.1643,0,0,0,0,0,0,0,0,0,0,0,0,0,0.151,0.1489,0.153,0.1557,0.156,0.1563,0.1563,0.1563,0.1604,0.1605,0.1606,0.1608,0.1642,0.1643,0.1643,0.1617,0,0,0.1643,0.1643,0,0,0,0,0,0,0,0,0.1509,0.1511,0.1552,0.1555,0.1559,0.1583,0.1562,0.1583,0.1603,0.1584,0.1607,0.1608,0.1624,0.1625,0.1625,0.1619,0.1621,0.1643,0.1643,0.1643,0.1644,0,0,0,0,0,0,0,0.1507,0.151,0.154,0.1553,0.1557,0.1564,0.1568,0.1566,0.1594,0.1586,0.159,0.1597,0.1625,0.1625,0.1626,0.1621,0.1643,0.1643,0.1644,0.1644,0.1719,0.1721,0,0,0,0,0,0,0.1508,0.1508,0.1539,0.1541,0.154,0.1564,0.1568,0.1572,0.1594,0.16,0.1596,0.1599,0.1624,0.1626,0.1627,0.1699,0.1643,0.1644,0.1644,0.1717,0.172,0.1722,0,0,0,0,0,0,0.1507,0.151,0.1538,0.1528,0.1533,0.1563,0.1567,0.1572,0.1611,0.1602,0.1608,0.1635,0.1625,0.1627,0.1665,0.1697,0.1644,0.1644,0.1715,0.1718,0.1721,0.1779,0,0,0,0,0,0,0.1505,0.1509,0.1529,0.1528,0.1533,0.1565,0.1566,0.1572,0.1612,0.1618,0.1636,0.1639,0.1626,0.1665,0.1666,0.1697,0.1644,0.1713,0.1716,0.172,0.1774,0.1783,0.179,0,0,0,0,0,0.1503,0.1516,0.1529,0.1535,0.1554,0.1566,0.157,0.1594,0.1613,0.1634,0.1655,0.164,0.1688,0.1667,0.1667,0.1699,0.1711,0.1715,0.172,0.1771,0.1781,0.179,0,0,0,0,0,0,0.151,0.1522,0.1536,0.1554,0.1574,0.1575,0.16,0.1616,0.1647,0.1665,0.1658,0.1662,0.171,0.1699,0.1675,0.1734,0.17,0.1704,0.1739,0.1749,0.1757,0.1767,0.1644,0,0,0,0,0,0.152,0.1537,0.1548,0.1569,0.1582,0.16,0.1616,0.1633,0.1652,0.1669,0.1683,0.1702,0.1719,0.1732,0.1743,0.1767,0.177,0.1792,0.18,0.1807,0.1817,0.1853,0.1865,0.1736,0.1736,0.1736,0,0,0.1529,0.1539,0.1551,0.1573,0.1591,0.1612,0.1614,0.1649,0.1675,0.1666,0.1719,0.1734,0.1735,0.177,0.179,0.1768,0.1846,0.1812,0.1818,0.1825,0.1859,0.1871,0.1882,0.1739,0.1738,0.1738,0,0,0.1542,0.1567,0.1584,0.1603,0.1639,0.1647,0.1667,0.1693,0.172,0.1763,0.1769,0.1809,0.1831,0.1839,0.1843,0.1903,0.1892,0.1914,0.1956,0.1991,0.2001,0.2011,0.2031,0.2042,0.1912,0.1912,0.1912,0,0.156,0.1574,0.1593,0.1615,0.1636,0.1668,0.1692,0.1717,0.1757,0.1785,0.1794,0.186,0.1862,0.1901,0.1926,0.1921,0.1938,0.1914,0.2001,0.201,0.2018,0.2037,0.2048,0.1915,0.1915,0.1915,0.1914,0,0.1571,0.1601,0.1615,0.1651,0.1679,0.1706,0.1739,0.1784,0.1825,0.185,0.1921,0.1933,0.1974,0.1981,0.1971,0.2036,0.2028,0.2009,0.1972,0.2035,0.2051,0.2061,0.192,0.1919,0.1918,0.1917,0,0,0.1561,0.1612,0.1623,0.1644,0.1701,0.1717,0.1778,0.1828,0.1875,0.1931,0.1989,0.2032,0.2062,0.207,0.2071,0.2098,0.2169,0.2088,0.2088,0.2102,0.225,0.2102,0.2099,0.2172,0.2174,0.2176,0.2236,0,0.1569,0.1606,0.1635,0.1682,0.1702,0.1757,0.1802,0.1862,0.1919,0.1984,0.2029,0.2085,0.2087,0.2118,0.2153,0.2167,0.2201,0.2155,0.2193,0.2194,0.2049,0.2107,0.2183,0.2244,0.2246,0.2248,0.2249,0,0.1564,0.159,0.1635,0.1691,0.1707,0.175,0.1836,0.1884,0.1982,0.2032,0.2114,0.215,0.222,0.2203,0.2282,0.2258,0.2271,0.2273,0.2275,0.2124,0.2065,0.2169,0.2267,0.2266,0.2265,0.2263,0.2262,0,0.1525,0.1586,0.1621,0.1643,0.1716,0.1763,0.1815,0.1912,0.1965,0.2079,0.2136,0.2219,0.2277,0.2315,0.2347,0.2327,0.2415,0.2377,0.2258,0.2247,0.2336,0.2325,0.2436,0.2436,0.2436,0.2436,0.2436,0,0.1497,0.1529,0.1614,0.1632,0.1688,0.1753,0.1832,0.19,0.2008,0.207,0.2169,0.2223,0.2314,0.2372,0.238,0.2355,0.2451,0.2277,0.2256,0.2359,0.235,0.2343,0.2331,0.2438,0.2438,0.2437,0.2437,0,0.1443,0.1499,0.1544,0.1635,0.1672,0.1719,0.1841,0.1887,0.2006,0.2095,0.2138,0.2262,0.2326,0.2389,0.2448,0.2382,0.2374,0.2343,0.2463,0.2446,0.2173,0.2164,0.2199,0.2194,0.219,0.2187,0.2184,0,0.1411,0.1432,0.1541,0.1575,0.1625,0.171,0.176,0.1882,0.1931,0.2093,0.2115,0.2236,0.2298,0.2268,0.2342,0.2345,0.2318,0.2297,0.2219,0.2174,0.2152,0.2149,0.2145,0.2178,0.2177,0.2176,0.2175,0,0.1351,0.1411,0.1449,0.1523,0.1585,0.1635,0.172,0.1745,0.1875,0.2005,0.2042,0.2073,0.2141,0.2173,0.2202,0.2198,0.2294,0.2255,0.2262,0.2188,0.2149,0.213,0.2131,0.2161,0.2163,0.2164,0.2165,0,0.1316,0.133,0.1396,0.1446,0.1518,0.153,0.1587,0.1633,0.1697,0.1867,0.188,0.2,0.2122,0.2099,0.2124,0.2111,0.2064,0.1979,0.2,0.2016,0.1926,0.1847,0.1757,0,0,0,0,0,0.1268,0.1268,0.1307,0.1343,0.1408,0.1447,0.1539,0.1595,0.1727,0.1704,0.1785,0.1834,0.1866,0.1932,0.1879,0.2036,0.2072,0.1963,0.1985,0.2085,0.2101,0.2011,0,0,0,0,0,0,0.1231,0.1267,0.127,0.1248,0.1255,0.1301,0.1353,0.1439,0.1432,0.1579,0.1608,0.172,0.1782,0.188,0.1845,0.1863,0.1835,0.2045,0.204,0.2076,0.2091,0.2103,0.2016,0,0,0,0,0]},{"header":{"parameterUnit":"m.s-1","parameterCategory":2,"la1":30.2991,"la2":30.254,"lo1":-89.0895,"lo2":-89.0444,"dy":0.0017,"dx":0.0017,"nx":28,"ny":28,"refTime":"2024-12-04T03:00:00:Z","depth":"4","parameterNumber":3,"parameterNumberName":"V-component_of_CURRENTS"},"data":[0,0,0,0,0,0,0,0,0,0,0,0,0,0,0,0,0,0,0,0,0,0,0,0,0,0,0,0,0,0,0,0,0,0,0,0,0,0,0,0,0,0,0,0,0,0,0,0,0,0,0,0,0,0,0,0,0,0,0.0211,0.0211,0,0.0195,0.0195,0.0195,0.0182,0.0182,0.0182,0.0182,0.0162,0.0161,0.0161,0,0,0,0,0,0,0,0,0,0,0,0,0,0.0199,0.02,0.0211,0.0211,0.0211,0.0195,0.0195,0.0195,0.0182,0.0182,0.0182,0.0182,0.0162,0.0161,0.0161,0,0,0,0,0,0,0,0,0,0,0,0,0,0.0196,0.02,0.0212,0.0203,0.0202,0.0195,0.0195,0.0195,0.0182,0.0182,0.0182,0.0182,0.0162,0.0161,0.0161,0.016,0,0,0.0159,0.0158,0,0,0,0,0,0,0,0,0.0196,0.0197,0.0204,0.0204,0.0203,0.0191,0.0183,0.0183,0.0182,0.019,0.0182,0.0182,0.0171,0.017,0.0167,0.0159,0.0158,0.0159,0.0158,0.0158,0.0158,0,0,0,0,0,0,0,0.0197,0.0197,0.0205,0.0204,0.0203,0.0189,0.0189,0.0183,0.0181,0.0189,0.0188,0.0187,0.0171,0.0168,0.0166,0.0158,0.0159,0.0158,0.0158,0.0157,0.015,0.015,0,0,0,0,0,0,0.0201,0.0198,0.0206,0.0205,0.0199,0.0189,0.0189,0.0195,0.0182,0.018,0.0187,0.0186,0.0169,0.0167,0.0166,0.0179,0.0158,0.0157,0.0157,0.015,0.015,0.015,0,0,0,0,0,0,0.0201,0.0202,0.0206,0.02,0.02,0.019,0.0196,0.0194,0.0193,0.018,0.0178,0.0187,0.0169,0.0167,0.0164,0.0178,0.0157,0.0156,0.0149,0.015,0.015,0.0197,0,0,0,0,0,0,0.0201,0.0202,0.0209,0.0201,0.02,0.0209,0.0196,0.0194,0.0192,0.0191,0.018,0.0178,0.0168,0.0166,0.0164,0.0176,0.0156,0.0149,0.015,0.015,0.0195,0.0198,0.0202,0,0,0,0,0,0.02,0.0214,0.0209,0.021,0.0209,0.021,0.0209,0.02,0.0192,0.0197,0.0187,0.0178,0.0166,0.0165,0.0163,0.0176,0.0149,0.0149,0.015,0.0193,0.0198,0.0201,0,0,0,0,0,0,0.0213,0.0214,0.0208,0.0222,0.0218,0.0208,0.0212,0.0203,0.0198,0.0197,0.0182,0.0179,0.0182,0.017,0.0169,0.0173,0.0156,0.0156,0.0189,0.0193,0.0197,0.0207,0.0155,0,0,0,0,0,0.0218,0.0229,0.0223,0.0233,0.0233,0.0221,0.022,0.0215,0.0208,0.0206,0.0196,0.0186,0.0181,0.018,0.0172,0.0177,0.0155,0.0182,0.0185,0.0188,0.0194,0.0169,0.017,0.0151,0.0151,0.0151,0,0,0.0225,0.0227,0.0233,0.0237,0.0232,0.0242,0.0221,0.0223,0.0233,0.0204,0.0214,0.0198,0.0184,0.0189,0.0189,0.0182,0.0181,0.0189,0.0192,0.0196,0.0169,0.0171,0.0173,0.0152,0.0152,0.0152,0,0,0.0247,0.0247,0.0264,0.0265,0.0263,0.0258,0.026,0.0252,0.025,0.0253,0.0235,0.0227,0.022,0.0213,0.0209,0.0225,0.0198,0.0221,0.0251,0.0226,0.0228,0.0229,0.02,0.0198,0.0226,0.0226,0.0226,0,0.0255,0.0278,0.0268,0.0283,0.029,0.0268,0.0288,0.0283,0.0275,0.0279,0.0263,0.0249,0.0233,0.0241,0.0245,0.0234,0.0212,0.024,0.0232,0.0232,0.0232,0.0202,0.0199,0.0228,0.0228,0.0228,0.0227,0,0.0289,0.0307,0.0317,0.0332,0.0337,0.035,0.0343,0.0345,0.0336,0.033,0.033,0.0301,0.0295,0.0286,0.0271,0.027,0.0251,0.0238,0.0224,0.0237,0.0204,0.02,0.0231,0.023,0.023,0.0229,0,0,0.031,0.0338,0.0342,0.0363,0.0366,0.0378,0.039,0.0402,0.0421,0.0395,0.041,0.0386,0.0365,0.0357,0.0331,0.0307,0.0284,0.0277,0.0275,0.0253,0.0225,0.0204,0.0198,0.0269,0.0269,0.0268,0.02,0,0.0342,0.0387,0.0389,0.0433,0.0457,0.0448,0.0468,0.0472,0.0467,0.0474,0.0435,0.0438,0.0395,0.0392,0.036,0.0307,0.0277,0.0304,0.0212,0.0209,0.0193,0.0194,0.0268,0.0197,0.0197,0.0196,0.0195,0,0.0375,0.0404,0.0454,0.0497,0.0507,0.0529,0.0561,0.0579,0.0576,0.057,0.0553,0.0518,0.0483,0.0439,0.0351,0.037,0.0303,0.0252,0.0248,0.0212,0.0182,0.0181,0.0188,0.0189,0.0189,0.019,0.019,0,0.0402,0.0451,0.0497,0.051,0.055,0.0573,0.0597,0.061,0.0641,0.0633,0.0641,0.0587,0.0565,0.0475,0.0362,0.0358,0.0254,0.0235,0.0151,0.0149,0.0168,0.0167,0.0169,0.0169,0.0169,0.0169,0.0169,0,0.0435,0.0473,0.0517,0.0542,0.0608,0.0619,0.0685,0.0694,0.0719,0.0757,0.0698,0.0697,0.0572,0.0493,0.0383,0.0256,0.0268,0.0157,0.0132,0.0188,0.019,0.0164,0.0165,0.0167,0.0167,0.0168,0.0168,0,0.0456,0.0482,0.0542,0.0598,0.0622,0.0671,0.0749,0.0796,0.0807,0.0848,0.0846,0.0784,0.0676,0.0538,0.0389,0.0293,0.0168,0.0118,0.0187,0.0167,0.0073,0.0076,0.0022,0.002,0.0019,0.0019,0.0018,0,0.0471,0.0504,0.0585,0.0629,0.0658,0.0735,0.0792,0.0837,0.0883,0.0897,0.0912,0.0827,0.076,0.0537,0.0388,0.0173,0.0138,0.0073,0.0069,0.0077,0.0058,0.0064,0.0068,0.0016,0.0016,0.0016,0.0015,0,0.0501,0.0529,0.058,0.0671,0.0739,0.0824,0.0901,0.0939,0.0984,0.0993,0.0961,0.0842,0.0718,0.0536,0.0368,0.0215,0.0116,0.0061,0.0062,0.0058,0.007,0.0053,0.0059,0.0012,0.0012,0.0012,0.0013,0,0.0523,0.0561,0.0628,0.0708,0.0797,0.0879,0.0924,0.0971,0.1014,0.1015,0.1002,0.0864,0.0788,0.0558,0.0406,0.0248,0.0204,0.0151,0.0147,0.0149,0.02,0.0234,0.0207,0,0,0,0,0,0.0541,0.0583,0.066,0.0747,0.0837,0.0891,0.0981,0.1018,0.1053,0.1033,0.1018,0.0896,0.0667,0.0577,0.0415,0.0377,0.0174,0.0181,0.0111,-0.0009,-0.0005,0.0031,0,0,0,0,0,0,0.0551,0.0621,0.0657,0.0764,0.0829,0.0933,0.0992,0.102,0.1009,0.1013,0.0896,0.0843,0.0625,0.0752,0.0406,0.0361,0.0292,0.0079,0.0075,-0.0012,-0.0008,-0.0004,0.0034,0,0,0,0,0]}]]